Location: Burtsch�tz
(51.0528°N, 12.1764°E)
Time: 13:54:19
(UTC+00:00)

Meteor 2-15 - Pass Details

Date: 29 October 2020
Orbit: 935 x 956 km, 82.5° (Epoch: 28 November)

Event Time Altitude Azimuth Distance (km) Brightness Sun altitude
Rises 17:46:14 0° 189° (S) 3,622 7.6 -18.7°
Reaches altitude 10° 17:48:43 10° 190° (S) 2,679 6.9 -19.1°
Maximum altitude 17:54:52 87° 281° (W) 962 4.4 -20.1°
Drops below altitude 10° 18:01:02 10° 10° (N) 2,686 6.7 -21.0°
Sets 18:03:32 0° 11° (N) 3,633 7.4 -21.4°
